| time (UTC) | temp F | wind direction | speed MPH | gust MPH | rain 1hr in | rain 24hr in | rain mn in | humidity % | barometer mb |
| 20260509062016 | 69 | 203 | 3.0 | 5.0 | 0.00 | 0.05 | 0.00 | 89 | 1009.5 |
| 20260509061016 | 68 | 203 | 2.0 | 4.0 | 0.00 | 0.05 | 0.00 | 89 | 1009.9 |
| 20260509060015 | 68 | 225 | 3.0 | 5.0 | 0.00 | 0.05 | 0.00 | 89 | 1010.4 |
| 20260509055016 | 68 | 225 | 2.0 | 7.0 | 0.00 | 0.05 | 0.00 | 89 | 1010.5 |
| 20260509054015 | 68 | 225 | 1.0 | 3.0 | 0.00 | 0.05 | 0.00 | 88 | 1010.1 |
| 20260509053016 | 68 | 203 | 2.0 | 3.0 | 0.00 | 0.05 | 0.00 | 88 | 1010.1 |
| 20260509052016 | 68 | 203 | 2.0 | 3.0 | 0.00 | 0.05 | 0.00 | 88 | 1010.0 |
| 20260509051015 | 68 | 203 | 1.0 | 4.0 | 0.00 | 0.05 | 0.00 | 87 | 1010.0 |
| 20260509050036 | 69 | 0.0 | 2.0 | 0.00 | 0.05 | 0.05 | 87 | 1010.3 | |
| 20260509045016 | 69 | 180 | 5.0 | 8.0 | 0.00 | 0.05 | 0.05 | 87 | 1010.1 |
| 20260509044016 | 69 | 180 | 3.0 | 4.0 | 0.00 | 0.05 | 0.05 | 87 | 1010.8 |
| 20260509043016 | 69 | 0.0 | 2.0 | 0.00 | 0.05 | 0.05 | 88 | 1011.3 | |
| 20260509042036 | 69 | 23 | 3.0 | 6.0 | 0.00 | 0.05 | 0.05 | 88 | 1011.5 |
| 20260509041016 | 68 | 293 | 4.0 | 10.0 | 0.00 | 0.05 | 0.05 | 89 | 1011.5 |
| 20260509040016 | 68 | 113 | 1.0 | 4.0 | 0.00 | 0.05 | 0.05 | 87 | 1010.1 |
| 20260509035016 | 68 | 0.0 | 0.0 | 0.00 | 0.05 | 0.05 | 87 | 1009.1 | |
| 20260509034036 | 68 | 0.0 | 3.0 | 0.00 | 0.05 | 0.05 | 87 | 1009.3 | |
| 20260509033016 | 68 | 135 | 2.0 | 4.0 | 0.00 | 0.05 | 0.05 | 87 | 1008.9 |
| 20260509032036 | 68 | 158 | 4.0 | 7.0 | 0.00 | 0.05 | 0.05 | 86 | 1008.7 |
| 20260509031016 | 69 | 135 | 5.0 | 8.0 | 0.00 | 0.05 | 0.05 | 86 | 1008.7 |
| 20260509030016 | 68 | 113 | 6.0 | 10.0 | 0.00 | 0.05 | 0.05 | 86 | 1008.8 |
| 20260509025016 | 68 | 113 | 6.0 | 10.0 | 0.00 | 0.05 | 0.05 | 86 | 1008.6 |
| 20260509024016 | 68 | 90 | 6.0 | 10.0 | 0.00 | 0.05 | 0.05 | 86 | 1008.4 |
| 20260509023016 | 69 | 68 | 6.0 | 11.0 | 0.00 | 0.05 | 0.05 | 85 | 1008.8 |
| 20260509022015 | 69 | 68 | 5.0 | 9.0 | 0.00 | 0.05 | 0.05 | 84 | 1008.5 |
| 20260509021035 | 70 | 158 | 2.0 | 5.0 | 0.00 | 0.05 | 0.05 | 84 | 1007.7 |
| 20260509020016 | 70 | 158 | 2.0 | 6.0 | 0.00 | 0.05 | 0.05 | 83 | 1007.1 |
| 20260509015016 | 70 | 158 | 5.0 | 10.0 | 0.00 | 0.05 | 0.05 | 83 | 1006.5 |
| 20260509014035 | 71 | 158 | 4.0 | 8.0 | 0.00 | 0.05 | 0.05 | 82 | 1006.5 |
| 20260509013015 | 71 | 180 | 6.0 | 10.0 | 0.00 | 0.05 | 0.05 | 81 | 1006.3 |
| 20260509012016 | 71 | 180 | 5.0 | 9.0 | 0.00 | 0.05 | 0.05 | 81 | 1006.4 |
| 20260509011015 | 72 | 180 | 5.0 | 8.0 | 0.00 | 0.05 | 0.05 | 79 | 1006.8 |
| 20260509010015 | 72 | 180 | 5.0 | 10.0 | 0.00 | 0.05 | 0.05 | 79 | 1007.0 |
| 20260509005015 | 73 | 180 | 5.0 | 8.0 | 0.00 | 0.05 | 0.05 | 78 | 1007.2 |
| 20260509004015 | 73 | 180 | 5.0 | 9.0 | 0.00 | 0.05 | 0.05 | 77 | 1007.3 |
| 20260509003015 | 74 | 180 | 5.0 | 9.0 | 0.00 | 0.05 | 0.05 | 76 | 1007.3 |
| 20260509002017 | 74 | 203 | 6.0 | 10.0 | 0.00 | 0.05 | 0.05 | 75 | 1007.2 |
| 20260509001017 | 75 | 180 | 6.0 | 12.0 | 0.00 | 0.05 | 0.05 | 74 | 1007.0 |
| 20260509000017 | 75 | 158 | 6.0 | 10.0 | 0.00 | 0.05 | 0.05 | 73 | 1007.0 |
| 20260508235037 | 75 | 180 | 5.0 | 10.0 | 0.00 | 0.05 | 0.05 | 72 | 1006.9 |
| 20260508234017 | 75 | 180 | 6.0 | 10.0 | 0.00 | 0.05 | 0.05 | 72 | 1006.8 |
| 20260508233017 | 76 | 180 | 6.0 | 10.0 | 0.00 | 0.05 | 0.05 | 71 | 1006.9 |
| 20260508232017 | 76 | 180 | 6.0 | 12.0 | 0.00 | 0.05 | 0.05 | 70 | 1007.0 |
| 20260508231017 | 77 | 180 | 6.0 | 10.0 | 0.00 | 0.05 | 0.05 | 71 | 1007.1 |
| 20260508230037 | 77 | 180 | 7.0 | 12.0 | 0.00 | 0.05 | 0.05 | 70 | 1007.2 |
| 20260508225017 | 77 | 180 | 6.0 | 11.0 | 0.00 | 0.05 | 0.05 | 71 | 1007.3 |
| 20260508224017 | 77 | 180 | 6.0 | 13.0 | 0.00 | 0.05 | 0.05 | 70 | 1007.3 |
| 20260508223017 | 77 | 180 | 7.0 | 12.0 | 0.00 | 0.05 | 0.05 | 70 | 1007.3 |
| 20260508222017 | 78 | 180 | 5.0 | 12.0 | 0.00 | 0.05 | 0.05 | 70 | 1007.3 |
| 20260508221017 | 77 | 158 | 5.0 | 9.0 | 0.00 | 0.05 | 0.05 | 71 | 1007.3 |
| 20260508220017 | 77 | 158 | 6.0 | 12.0 | 0.00 | 0.05 | 0.05 | 70 | 1007.3 |
| 20260508215017 | 77 | 158 | 6.0 | 11.0 | 0.00 | 0.05 | 0.05 | 72 | 1007.4 |
| 20260508214016 | 77 | 158 | 6.0 | 12.0 | 0.00 | 0.05 | 0.05 | 70 | 1007.6 |
| 20260508213017 | 76 | 180 | 6.0 | 11.0 | 0.00 | 0.05 | 0.05 | 71 | 1007.5 |
| 20260508212017 | 76 | 135 | 7.0 | 11.0 | 0.00 | 0.05 | 0.05 | 71 | 1007.7 |
| 20260508211016 | 76 | 180 | 7.0 | 11.0 | 0.00 | 0.05 | 0.05 | 71 | 1007.8 |
| 20260508210017 | 76 | 180 | 7.0 | 13.0 | 0.00 | 0.05 | 0.05 | 70 | 1007.8 |
| 20260508205016 | 75 | 180 | 6.0 | 11.0 | 0.00 | 0.05 | 0.05 | 71 | 1008.2 |
| 20260508204016 | 75 | 180 | 7.0 | 11.0 | 0.00 | 0.05 | 0.05 | 71 | 1008.3 |
| 20260508203016 | 75 | 203 | 7.0 | 13.0 | 0.00 | 0.05 | 0.05 | 70 | 1008.6 |
| 20260508202016 | 75 | 180 | 10.0 | 15.0 | 0.00 | 0.05 | 0.05 | 71 | 1008.7 |
| 20260508201016 | 76 | 180 | 7.0 | 12.0 | 0.00 | 0.05 | 0.05 | 71 | 1008.9 |
| 20260508200016 | 76 | 180 | 7.0 | 13.0 | 0.00 | 0.05 | 0.05 | 71 | 1009.2 |
| 20260508195016 | 76 | 180 | 7.0 | 10.0 | 0.00 | 0.05 | 0.05 | 72 | 1009.3 |
| 20260508194016 | 75 | 203 | 7.0 | 11.0 | 0.00 | 0.05 | 0.05 | 71 | 1009.4 |
| 20260508193016 | 74 | 180 | 5.0 | 10.0 | 0.00 | 0.05 | 0.05 | 72 | 1009.5 |
| 20260508192016 | 75 | 203 | 3.0 | 7.0 | 0.00 | 0.05 | 0.05 | 72 | 1009.7 |
| 20260508191016 | 76 | 203 | 6.0 | 10.0 | 0.00 | 0.05 | 0.05 | 70 | 1009.9 |
| 20260508190016 | 76 | 225 | 4.0 | 9.0 | 0.00 | 0.05 | 0.05 | 70 | 1009.8 |
| 20260508185016 | 76 | 180 | 6.0 | 13.0 | 0.00 | 0.05 | 0.05 | 69 | 1009.9 |
| 20260508184016 | 77 | 203 | 6.0 | 12.0 | 0.00 | 0.05 | 0.05 | 70 | 1010.0 |
| 20260508183016 | 77 | 180 | 5.0 | 10.0 | 0.00 | 0.05 | 0.05 | 69 | 1010.1 |
| 20260508182016 | 77 | 180 | 4.0 | 10.0 | 0.00 | 0.05 | 0.05 | 70 | 1010.1 |
| 20260508181016 | 75 | 158 | 6.0 | 9.0 | 0.00 | 0.05 | 0.05 | 71 | 1010.2 |
| 20260508180036 | 76 | 180 | 5.0 | 10.0 | 0.00 | 0.05 | 0.05 | 72 | 1010.5 |
| 20260508175056 | 75 | 180 | 5.0 | 10.0 | 0.00 | 0.05 | 0.05 | 73 | 1010.8 |
| 20260508174016 | 74 | 203 | 4.0 | 10.0 | 0.00 | 0.05 | 0.05 | 74 | 1010.9 |
| 20260508173015 | 73 | 135 | 6.0 | 11.0 | 0.00 | 0.05 | 0.05 | 72 | 1011.1 |
| 20260508172036 | 73 | 180 | 4.0 | 9.0 | 0.00 | 0.05 | 0.05 | 73 | 1011.2 |
| 20260508171016 | 72 | 180 | 5.0 | 9.0 | 0.00 | 0.05 | 0.05 | 73 | 1011.5 |
| 20260508170016 | 72 | 203 | 5.0 | 11.0 | 0.00 | 0.05 | 0.05 | 73 | 1011.6 |
| 20260508165015 | 71 | 135 | 6.0 | 11.0 | 0.00 | 0.05 | 0.05 | 73 | 1011.7 |
| 20260508164136 | 70 | 158 | 5.0 | 9.0 | 0.00 | 0.05 | 0.05 | 73 | 1012.0 |
| 20260508163016 | 70 | 180 | 6.0 | 11.0 | 0.00 | 0.05 | 0.05 | 72 | 1012.2 |
| 20260508162016 | 70 | 180 | 5.0 | 11.0 | 0.00 | 0.05 | 0.05 | 72 | 1012.1 |
| 20260508161015 | 70 | 180 | 5.0 | 9.0 | 0.00 | 0.05 | 0.05 | 73 | 1012.2 |
| 20260508160015 | 70 | 180 | 6.0 | 11.0 | 0.00 | 0.05 | 0.05 | 73 | 1012.3 |
| 20260508155015 | 69 | 180 | 6.0 | 11.0 | 0.00 | 0.05 | 0.05 | 72 | 1012.5 |
| 20260508154015 | 69 | 180 | 4.0 | 8.0 | 0.00 | 0.05 | 0.05 | 75 | 1012.7 |
| 20260508153036 | 68 | 203 | 5.0 | 8.0 | 0.00 | 0.05 | 0.05 | 75 | 1012.9 |
| 20260508152015 | 67 | 180 | 7.0 | 12.0 | 0.00 | 0.05 | 0.05 | 74 | 1013.1 |
| 20260508151015 | 67 | 180 | 5.0 | 9.0 | 0.00 | 0.05 | 0.05 | 77 | 1013.1 |
| 20260508150035 | 67 | 158 | 4.0 | 9.0 | 0.00 | 0.05 | 0.05 | 78 | 1013.3 |
| 20260508145015 | 66 | 180 | 5.0 | 10.0 | 0.00 | 0.05 | 0.05 | 79 | 1013.4 |
| 20260508144017 | 65 | 180 | 7.0 | 10.0 | 0.00 | 0.05 | 0.05 | 80 | 1013.1 |
| 20260508143017 | 65 | 203 | 6.0 | 10.0 | 0.00 | 0.05 | 0.05 | 82 | 1013.3 |
| 20260508142017 | 64 | 180 | 4.0 | 7.0 | 0.00 | 0.05 | 0.05 | 85 | 1013.2 |
| 20260508141017 | 63 | 180 | 4.0 | 8.0 | 0.00 | 0.05 | 0.05 | 87 | 1013.5 |
| 20260508140017 | 63 | 180 | 3.0 | 8.0 | 0.00 | 0.05 | 0.05 | 90 | 1013.6 |
| 20260508135017 | 62 | 135 | 2.0 | 5.0 | 0.00 | 0.05 | 0.05 | 90 | 1013.7 |
| 20260508134017 | 62 | 135 | 3.0 | 7.0 | 0.00 | 0.05 | 0.05 | 90 | 1013.6 |
| 20260508133017 | 61 | 135 | 4.0 | 7.0 | 0.00 | 0.05 | 0.05 | 90 | 1013.6 |
| 20260508132017 | 61 | 135 | 3.0 | 5.0 | 0.00 | 0.05 | 0.05 | 91 | 1013.7 |
| 20260508131017 | 61 | 113 | 2.0 | 3.0 | 0.01 | 0.05 | 0.05 | 91 | 1013.7 |
| 20260508130037 | 60 | 113 | 2.0 | 3.0 | 0.02 | 0.05 | 0.05 | 91 | 1013.6 |
| 20260508125017 | 60 | 135 | 1.0 | 3.0 | 0.02 | 0.05 | 0.05 | 91 | 1013.8 |
| 20260508124037 | 60 | 0.0 | 1.0 | 0.02 | 0.05 | 0.05 | 90 | 1013.8 | |
| 20260508123017 | 59 | 180 | 2.0 | 4.0 | 0.03 | 0.05 | 0.05 | 90 | 1013.3 |
| 20260508122017 | 59 | 135 | 1.0 | 3.0 | 0.04 | 0.05 | 0.05 | 90 | 1013.3 |
| 20260508121016 | 59 | 135 | 1.0 | 4.0 | 0.03 | 0.04 | 0.04 | 90 | 1013.4 |
| 20260508120017 | 59 | 158 | 3.0 | 5.0 | 0.02 | 0.03 | 0.03 | 89 | 1013.2 |
| 20260508115517 | 59 | 180 | 2.0 | 3.0 | 0.02 | 0.03 | 0.03 | 89 | 1013.5 |
| 20260508114517 | 59 | 180 | 2.0 | 4.0 | 0.02 | 0.03 | 0.03 | 89 | 1013.4 |
| 20260508113516 | 59 | 158 | 3.0 | 6.0 | 0.02 | 0.03 | 0.03 | 88 | 1013.4 |
| 20260508112516 | 59 | 203 | 4.0 | 8.0 | 0.00 | 0.01 | 0.01 | 88 | 1013.4 |
| 20260508111557 | 59 | 180 | 3.0 | 5.0 | 0.01 | 0.01 | 0.01 | 88 | 1013.5 |
| 20260508110516 | 59 | 158 | 2.0 | 4.0 | 0.01 | 0.01 | 0.01 | 88 | 1013.4 |
| 20260508105517 | 59 | 180 | 1.0 | 2.0 | 0.01 | 0.01 | 0.01 | 88 | 1013.8 |
| 20260508104516 | 59 | 0.0 | 2.0 | 0.01 | 0.01 | 0.01 | 88 | 1013.3 | |
| 20260508103516 | 59 | 158 | 2.0 | 3.0 | 0.01 | 0.01 | 0.01 | 87 | 1013.1 |
| 20260508102516 | 59 | 158 | 2.0 | 4.0 | 0.01 | 0.01 | 0.01 | 87 | 1013.0 |
| 20260508101516 | 59 | 180 | 2.0 | 4.0 | 0.00 | 0.00 | 0.00 | 87 | 1013.3 |
| 20260508100516 | 59 | 158 | 3.0 | 5.0 | 0.00 | 0.00 | 0.00 | 86 | 1012.8 |
| 20260508095536 | 59 | 158 | 2.0 | 4.0 | 0.00 | 0.00 | 0.00 | 86 | 1013.1 |
| 20260508094516 | 59 | 158 | 1.0 | 2.0 | 0.00 | 0.00 | 0.00 | 86 | 1013.5 |
| 20260508093516 | 59 | 0.0 | 1.0 | 0.00 | 0.00 | 0.00 | 85 | 1013.5 | |
| 20260508092516 | 59 | 0.0 | 1.0 | 0.00 | 0.00 | 0.00 | 85 | 1013.2 | |
| 20260508091536 | 59 | 0.0 | 0.0 | 0.00 | 0.00 | 0.00 | 85 | 1013.4 | |
| 20260508090516 | 59 | 0.0 | 0.0 | 0.00 | 0.00 | 0.00 | 84 | 1013.3 | |
| 20260508085516 | 59 | 0.0 | 0.0 | 0.00 | 0.00 | 0.00 | 84 | 1013.3 | |
| 20260508084536 | 59 | 158 | 1.0 | 5.0 | 0.00 | 0.00 | 0.00 | 84 | 1013.2 |
| 20260508083516 | 59 | 158 | 3.0 | 7.0 | 0.00 | 0.00 | 0.00 | 84 | 1013.3 |
| 20260508082516 | 59 | 158 | 2.0 | 5.0 | 0.00 | 0.00 | 0.00 | 84 | 1013.3 |
| 20260508081516 | 59 | 158 | 1.0 | 3.0 | 0.00 | 0.00 | 0.00 | 85 | 1013.4 |
| 20260508080516 | 58 | 135 | 1.0 | 2.0 | 0.00 | 0.00 | 0.00 | 85 | 1013.5 |
| 20260508075516 | 58 | 135 | 2.0 | 3.0 | 0.00 | 0.00 | 0.00 | 85 | 1013.6 |
| 20260508074516 | 58 | 158 | 2.0 | 5.0 | 0.00 | 0.00 | 0.00 | 85 | 1013.8 |
| 20260508073516 | 58 | 158 | 2.0 | 3.0 | 0.00 | 0.00 | 0.00 | 86 | 1014.1 |
| 20260508072516 | 58 | 158 | 1.0 | 2.0 | 0.00 | 0.00 | 0.00 | 86 | 1014.4 |
| 20260508071515 | 57 | 158 | 1.0 | 4.0 | 0.00 | 0.00 | 0.00 | 87 | 1014.3 |
| 20260508070515 | 56 | 0.0 | 0.0 | 0.00 | 0.00 | 0.00 | 86 | 1014.8 | |
| 20260508065516 | 56 | 0.0 | 1.0 | 0.00 | 0.00 | 0.00 | 87 | 1014.7 | |
| 20260508064536 | 56 | 0.0 | 0.0 | 0.00 | 0.00 | 0.00 | 86 | 1014.6 | |
| 20260508063536 | 56 | 0.0 | 0.0 | 0.00 | 0.00 | 0.00 | 86 | 1014.8 |